07.05.2024;18:00;82
07.05.2024;17:00;79
07.05.2024;16:00;65
07.05.2024;15:00;70
07.05.2024;14:00;71
07.05.2024;13:00;70
07.05.2024;12:00;71
07.05.2024;11:00;67
07.05.2024;10:00;63
07.05.2024;09:00;60
07.05.2024;08:00;60
07.05.2024;07:00;62
07.05.2024;06:00;64
07.05.2024;05:00;65
07.05.2024;04:00;63
07.05.2024;03:00;64
07.05.2024;02:00;66
07.05.2024;01:00;63
07.05.2024;00:00;63
06.05.2024;23:00;67
06.05.2024;22:00;78
06.05.2024;21:00;83
06.05.2024;20:00;86
06.05.2024;19:00;90
06.05.2024;18:00;94
06.05.2024;17:00;99
06.05.2024;16:00;101
06.05.2024;15:00;93
06.05.2024;14:00;86
06.05.2024;13:00;74
06.05.2024;12:00;65
06.05.2024;11:00;59
06.05.2024;10:00;51
06.05.2024;09:00;30
06.05.2024;08:00;20
06.05.2024;07:00;10
06.05.2024;06:00;8
06.05.2024;05:00;9
06.05.2024;04:00;24
06.05.2024;03:00;29
06.05.2024;02:00;46
06.05.2024;01:00;38
06.05.2024;00:00;24
05.05.2024;23:00;42
05.05.2024;22:00;38
05.05.2024;21:00;43
05.05.2024;20:00;73
05.05.2024;19:00;84
